Weather History for Denver Centennial, CO

Change the Weather History Date:

Tuesday, September 24, 2013

  Actual Average Record
Temperature  
Mean Temperature 56 °F -  
Max Temperature 72 °F 69 °F 82 °F (1998)
Min Temperature 40 °F 41 °F 28 °F (2000)
Degree Days  
Heating Degree Days 9    
Month to date heating degree days 54  
Growing Degree Days 7 (Base 50)    
Moisture  
Dew Point 33 °F    
Average Humidity 45    
Maximum Humidity 67    
Minimum Humidity 22    
Precipitation  
Precipitation 0.00 in - - ()
Month to date precipitation 6.75  
Year to date precipitation 16.56  
Sea Level Pressure  
Sea Level Pressure 29.94 in    
Wind  
Wind Speed 7 mph (SSE)    
Max Wind Speed 22 mph    
Max Gust Speed 28 mph    
Visibility 10 miles    
Events      
Averages and records for this station are not official NWS values.
T = Trace of Precipitation, MM = Missing Value Source: NWS Daily Summary

Daily Weather History Graph

Daily Weather History Graph

Search for Another Location

Airport:

Trip Planner

Search our weather history database for the weather conditions in past years. The results will help you decide how hot, cold, wet, or windy it might be!

Date:

Astronomy

Sep. 24, 2013 Rise Set
Actual Time 6:49 AM MDT 6:52 PM MDT
Civil Twilight 6:22 AM MDT 7:19 PM MDT
Nautical Twilight 5:50 AM MDT 7:50 PM MDT
Astronomical Twilight 5:19 AM MDT 8:22 PM MDT
Moon 10:13 PM MDT (9/24) 12:04 PM MDT (9/24)
Length of Visible Light 12h 57m
Length of Day
12h 03m
Waning Gibbous, 72% of the Moon is Illuminated
Sep 24
Waning Gibbous
Sep 26
Last Quarter
Oct 4
New
Oct 11
First Quarter
Oct 18
Full

Hourly Weather History & Observations

Time (MDT) Temp. Windchill Dew Point Humidity Pressure Visibility Wind Dir Wind Speed Gust Speed Precip Events Conditions
12:53 AM 46.9 °F - 30.9 °F 54% 29.95 in 10.0 mi SSE 4.6 mph - N/A   Clear
1:53 AM 45.0 °F 42.6 °F 32.0 °F 60% 29.95 in 10.0 mi SSE 4.6 mph - N/A   Clear
2:53 AM 46.9 °F - 30.0 °F 52% 29.95 in 10.0 mi SW 8.1 mph - N/A   Clear
3:53 AM 48.9 °F - 28.0 °F 44% 29.94 in 10.0 mi SSW 6.9 mph - N/A   Clear
4:53 AM 45.0 °F 41.2 °F 30.0 °F 56% 29.98 in 10.0 mi SSE 6.9 mph - N/A   Clear
5:53 AM 42.1 °F 38.4 °F 32.0 °F 67% 29.99 in 10.0 mi SSE 5.8 mph - N/A   Clear
6:53 AM 42.1 °F 39.2 °F 30.9 °F 65% 30.03 in 10.0 mi SSE 4.6 mph - N/A   Scattered Clouds
7:53 AM 48.0 °F - 33.1 °F 56% 30.01 in 10.0 mi South 5.8 mph - N/A   Scattered Clouds
8:53 AM 52.0 °F - 35.1 °F 53% 30.10 in 10.0 mi SE 4.6 mph - N/A   Scattered Clouds
9:53 AM 60.1 °F - 34.0 °F 38% 30.07 in 10.0 mi Calm Calm - N/A   Scattered Clouds
10:53 AM 63.0 °F - 32.0 °F 31% 30.07 in 10.0 mi East 3.5 mph - N/A   Scattered Clouds
11:53 AM 66.0 °F - 34.0 °F 30% 30.04 in 10.0 mi Calm Calm - N/A   Clear
12:53 PM 69.1 °F - 30.0 °F 23% 29.99 in 10.0 mi ESE 8.1 mph - N/A   Clear
1:53 PM 71.1 °F - 30.9 °F 23% 29.96 in 10.0 mi ESE 9.2 mph - N/A   Clear
2:53 PM 72.0 °F - 33.1 °F 24% 29.91 in 10.0 mi SSE 8.1 mph - N/A   Clear
3:53 PM 72.0 °F - 35.1 °F 26% 29.88 in 10.0 mi SE 11.5 mph - N/A   Partly Cloudy
4:53 PM 70.0 °F - 37.0 °F 30% 29.89 in 10.0 mi SSE 11.5 mph - N/A   Partly Cloudy
5:53 PM 68.0 °F - 36.0 °F 31% 29.90 in 10.0 mi SSE 11.5 mph - N/A   Partly Cloudy
6:53 PM 63.0 °F - 37.9 °F 40% 29.90 in 10.0 mi SSE 8.1 mph - N/A   Scattered Clouds
7:53 PM 57.9 °F - 39.0 °F 49% 29.90 in 10.0 mi South 4.6 mph - N/A   Scattered Clouds
8:53 PM 60.1 °F - 35.1 °F 39% 29.86 in 10.0 mi South 16.1 mph 25.3 mph N/A   Scattered Clouds
9:53 PM 60.1 °F - 35.1 °F 39% 29.82 in 10.0 mi South 17.3 mph 25.3 mph N/A   Scattered Clouds
10:53 PM 57.9 °F - 34.0 °F 41% 29.80 in 10.0 mi South 16.1 mph - N/A   Clear
11:53 PM 57.0 °F - 35.1 °F 44% 29.77 in 10.0 mi South 15.0 mph - N/A   Clear